MST,Max TemperatureF,Mean TemperatureF,Min TemperatureF,Max Dew PointF,MeanDew PointF,Min DewpointF,Max Humidity, Mean Humidity, Min Humidity, Max Sea Level PressureIn, Mean Sea Level PressureIn, Min Sea Level PressureIn, Max VisibilityMiles, Mean VisibilityMiles, Min VisibilityMiles, Max Wind SpeedMPH, Mean Wind SpeedMPH, Max Gust SpeedMPH,PrecipitationIn, CloudCover, Events, WindDirDegrees
2012-1-1,29,18,7,12,8,3,76,61,46,30.78,30.66,30.41,10,10,10,15,7,,0.00,3,,261
2012-1-2,43,29,14,20,16,6,67,52,36,30.71,30.47,30.19,10,10,10,32,18,45,0.00,0,,222
2012-1-3,47,35,22,26,19,16,74,56,37,30.40,30.23,30.13,10,10,10,30,16,38,0.00,0,,236
2012-1-4,45,36,27,20,17,14,68,52,36,30.47,30.35,30.25,10,10,10,29,20,39,0.00,0,,217
2012-1-5,51,43,34,24,19,15,54,42,30,30.23,30.03,29.88,10,10,10,27,21,40,0.00,0,,228
2012-1-6,35,27,19,23,18,15,88,68,47,30.17,30.09,29.97,10,10,10,13,5,,0.00,2,,45
2012-1-7,34,24,13,19,16,9,84,68,51,30.27,30.14,30.00,10,10,10,5,2,,0.00,1,,307
2012-1-8,34,24,14,15,12,8,80,59,38,30.30,30.26,30.14,10,10,10,25,14,33,0.00,0,,226
2012-1-9,42,35,28,22,19,16,63,53,43,30.35,30.25,30.14,10,10,10,27,19,36,0.00,0,,220
2012-1-10,44,34,24,30,22,18,92,64,36,30.15,29.95,29.79,10,6,0,30,20,40,0.14,3,Fog-Snow,282
2012-1-11,24,11,-2,19,8,-9,84,70,55,30.46,30.22,30.00,10,6,0,27,13,55,0.04,5,Fog-Snow,350
2012-1-12,24,15,6,7,2,-6,61,55,48,30.39,30.29,30.09,10,10,10,25,16,37,0.00,2,,229
2012-1-13,35,23,11,16,9,3,67,56,44,30.23,30.14,30.07,10,10,10,27,17,38,0.00,2,,232
2012-1-14,42,30,18,19,13,8,61,48,35,30.18,30.02,29.84,10,10,10,32,22,47,0.00,0,,219
2012-1-15,45,32,19,19,14,9,75,53,30,29.83,29.74,29.62,10,10,10,29,19,43,0.00,1,,235
2012-1-16,19,9,-2,11,5,-3,87,74,61,30.25,29.90,29.71,10,5,1,17,11,,0.06,7,Snow,10
2012-1-17,21,11,1,3,-1,-5,87,64,41,30.33,30.20,30.01,10,10,10,23,16,40,0.00,0,,231
2012-1-18,36,26,15,22,12,-1,59,50,41,29.98,29.80,29.63,10,10,10,37,29,51,0.00,0,,247
2012-1-19,50,42,34,29,27,23,64,55,46,29.71,29.61,29.50,10,10,10,35,26,46,0.00,0,,226
2012-1-20,45,34,22,28,24,15,75,60,45,29.88,29.75,29.53,10,10,10,29,12,36,0.00,0,,251
2012-1-21,50,42,34,32,27,22,70,52,34,29.70,29.38,29.22,10,10,7,45,28,63,0.04,4,Rain,228
2012-1-22,34,25,16,31,25,10,92,78,63,29.97,29.64,29.29,10,6,1,20,12,35,0.28,6,Rain-Snow,298
2012-1-23,36,29,21,23,18,12,75,66,56,29.97,29.88,29.76,10,10,10,23,15,31,0.00,1,,230
2012-1-24,31,21,11,25,20,8,88,75,62,30.33,30.08,29.84,10,6,0,25,11,32,0.11,5,Fog-Snow,306
2012-1-25,43,33,22,27,21,11,69,59,49,30.19,30.09,29.96,10,10,9,40,25,53,0.00,0,,220
2012-1-26,41,34,27,31,24,19,76,65,54,30.12,29.93,29.74,10,10,10,24,16,37,0.00,3,,238
2012-1-27,33,24,14,25,13,5,78,60,42,30.41,30.18,29.86,10,10,2,24,15,35,T,5,Snow,327
2012-1-28,35,26,16,11,5,-1,67,50,33,30.40,30.30,30.16,10,10,10,27,18,41,0.00,1,,227
2012-1-29,40,34,27,19,15,10,50,45,40,30.24,30.11,29.96,10,10,10,35,26,45,0.00,2,,216
2012-1-30,45,37,28,24,18,14,59,48,37,29.94,29.83,29.72,10,10,10,32,22,45,0.00,0,,236
2012-1-31,40,32,23,19,15,12,68,53,37,30.13,30.04,29.90,10,10,10,23,12,30,0.00,0,,227